Tracking 22130 objects as of 21-Jan-2021
HD Live streaming from Space Station
objects crossing your sky now

STTW-3

Track STTW-3 now!
STTW-3 is classified as:


NORAD ID: 19710
Int'l Code: 1988-111A
Perigee: 35,780.5 km
Apogee: 35,831.2 km
Inclination: 15.0 °
Period: 1,436.7 minutes
Semi major axis: 42176 km
RCS: 6.3096 m2 (large)
Launch date: December 22, 1988
Source: People's Republic of China (PRC)
Launch site: Xichang Space Center, China (XSC)
aabbcc
Your satellite tracking list
Your tracking list is empty




NASA's NSSDC Master Catalog

Two Line Element Set (TLE):
1 19710U 88111A   21020.86003980 -.00000337  00000-0  00000-0 0  9990
2 19710  15.0013   1.3220 0006008  75.9793  97.7703  1.00228719111053
Source of the keplerian elements: AFSPC